Location: Drouwen
(52.9559°N, 6.7974°E)
Time: 11:37:29
(UTC+00:00)

Cosmos 1464 Rocket - Pass Details

Date: 15 May 2026
Orbit: 952 x 1000 km, 82.9° (Epoch: 9 June)

Event Time Altitude Azimuth Distance (km) Brightness Sun altitude
Exits shadow 21:18:41 - 185° (S) 2,726 5.9 -12.7°
Reaches altitude 10° 21:18:49 10° 185° (S) 2,679 5.8 -12.7°
Maximum altitude 21:24:57 84° 98° (E) 973 4.0 -13.2°
Drops below altitude 10° 21:31:11 10° 12° (NNE) 2,722 7.1 -13.6°
Sets 21:33:43 0° 12° (NNE) 3,680 7.9 -13.8°
